Tucumcari Municipal Airport Tucumcari US
ICAO: KTCC
IATA: TCC
Category: Medium
Scheduled Services: No

Elevation: 4065 ft
TransAlt. 18000 ft.

Airport Communications:
ASOS:119.275
ALBUQUERQUE CNTR:126.85
ALBUQUERQUE RDO:122.35
CTAF/UNICOM:122.95

KTCC Zoom In..

If you have problems with the map follow the link
https://www.worldairports.se/pages/airport.php?
ICAO=KTCC

Runways:

(A) RW 03 length 7104 ft width 100 ft
---- / hdg 33

(B) RW 08 length 4600 ft width 60 ft
---- / hdg 78

(C) RW 21 length 7104 ft width 100 ft
---- / hdg 213

(D) RW 26 length 4600 ft width 60 ft
---- / hdg 258

Location; KTCC
Day. 29 / Time. 16.53 Zulu
* Altimeter: 30.08
* Temperature: 03° c. 37.4°f.
* Wind from: KTC° Speed C kn.
Dewpoint: -04° c.
Visibility: 10 Statute Miles.
Clouds: Clear (automated report).

KTCC 291653Z AUTO 16003KT 10SM CLR 03/M04 A3008 RMK AO2 SLP192 T00281039


Wind From KTC°
Speed C kn.

 
 
jpsmedia worldairports.se 2020   terms of use